Other Public Products
Issued by NWS Grand Forks, ND

Home | Current Version | Previous Version | Text Only | Print | Product List | Glossary Off
Versions: 1 2 3 4 5 6 7 8 9 10 11 12 13 14 15 16 17 18 19 20 21 22 23 24 25 26 27 28 29 30 31 32 33 34 35 36 37 38 39 40 41 42 43 44 45 46 47 48 49 50

000
FPUS83 KFGF 281310
OPUFGF
PRAIRIE TO PINES WEATHER ROUNDUP
NATIONAL WEATHER SERVICE EASTERN NORTH DAKOTA/GRAND FORKS ND
800 AM CDT FRI AUG 28 2015

 **SATELLITE DATA USED TO AUGMENT SKY COVER AT AUTOMATED STATIONS**
 *****  WEATHER ACROSS EASTERN NORTH DAKOTA  *****

CITY           SKY/WX    TMP DP  RH WIND       PRES   REMARKS
GRAND FORKS    MOSUNNY   64  62  93 S10       29.84F
GRAND FORKS AF MOSUNNY   64  62  92 S8        29.84F
GRAND CITY NWS   N/A     63 N/A N/A S6          N/A
BUXTON         NOT AVBL
DEVILS LAKE    MOSUNNY   68  57  68 SW12      29.83F
FARGO          MOSUNNY   65  62  90 S10       29.92R
WAHPETON ARPT  CLOUDY    63  61  94 S9        29.94S VSB 1/2
$$

 *****  WEATHER ACROSS CENTRAL AND WESTERN NORTH DAKOTA  *****

CITY           SKY/WX    TMP DP  RH WIND       PRES   REMARKS
JAMESTOWN      SUNNY     60  58  92 S5        29.89F
BISMARCK       CLEAR     60  59  96 CALM      29.91S
MINOT          MOCLDY    67  58  72 SW13      29.83R
MINOT AFB      MOCLDY    65  63  93 W8        29.82R
GARRISON         N/A     63  60  90 S6        29.88S
WILLISTON      CLEAR     58  56  93 CALM      29.89R
DICKINSON      CLEAR     59  55  87 SW6       29.92R
HETTINGER      CLEAR     57  55  93 CALM      29.97R
$$

 *****  OTHER OBSERVATIONS NORTHEAST NORTH DAKOTA  *****

CITY           SKY/WX    TMP DP  RH WIND       PRES   REMARKS
WALHALLA       FAIR      64  64 100 MISG      29.80F
LANGDON        FAIR      63  63 100 S6        29.85R
CAVALIER       FAIR      63  63 100 N3        29.83R
GRAFTON        FAIR      64  64 100 SE5       29.83S
CANDO          NOT AVBL
FORT TOTTEN      N/A     67  61  81 SW6       29.95S
ROLLA          FAIR      63  63 100 SW10      29.82S
RUGBY          FAIR      63  63 100 S5        29.83S
 ***** THE ABOVE OBSERVATIONS ARE NON NWS ARE NOT QUALITY
        CONTROLLED AND MAY MIS-REPORT RAIN FOR SNOW...
$$

 *****  OTHER OBSERVATIONS SOUTHEAST NORTH DAKOTA *****

CITY           SKY/WX    TMP DP  RH WIND       PRES   REMARKS
COOPERSTOWN    NOT AVBL
VALLEY CITY    FAIR      59  59 100 S6        29.92R
OAKES          FOG       63  63 100 S10       29.92S VSB<1/4
GWINNER          N/A     63  63 100 S8        29.93S
BUFFALO        NOT AVBL
WYNDMERE         N/A     64  64 100 S5          N/A
 ***** THE ABOVE OBSERVATIONS ARE NON NWS ARE NOT QUALITY
       CONTROLLED AND MAY MIS-REPORT RAIN FOR SNOW...
$$

  *****  WEATHER ACROSS NORTHERN MINNESOTA  *****

CITY           SKY/WX    TMP DP  RH WIND       PRES   REMARKS
FLAG ISLAND    CLOUDY    66  64  94 S14       29.82F FOG
WARROAD        FOG       64  61  88 S6        29.86R VSB 3/4
ROSEAU         HAZE      64  61  88 SW3       29.85R VSB 1
HALLOCK        MOSUNNY   64  63  94 CALM      29.83S
THF RVR FALLS  MOSUNNY  N/A N/A N/A S9        29.87S
HALSTAD        NOT AVBL
FOSSTON        PTSUNNY   63  63 100 S9        29.92F FOG
BAUDETTE       FOG       63  62  97 S10       29.85F VSB 1
WASKISH        CLOUDY    64  64 100 S3        29.90F FOG
CROOKSTON      MOSUNNY   64  63  94 S13       29.88S
$$
  *****  WEATHER ACROSS CENTRAL AND WEST MINNESOTA  *****

CITY           SKY/WX    TMP DP  RH WIND       PRES   REMARKS
BEMIDJI        FOG       64  64 100 S7        29.93S VSB 1/2
PARK RAPIDS    FOG       65  63  93 S5        29.97R VSB 1/4
WADENA         SUNNY     63  63 100 S7        29.96S
DETROIT LAKES  CLOUDY    64  63  94 S8        29.96R FOG
MOORHEAD       CLOUDY    64  63  94 S7        29.94R FOG
FERGUS FALLS   SUNNY     63  63 100 S10       29.95S
ELBOW LAKE     FAIR      62  62  99 S10       29.96F
MORRIS MN      PTSUNNY   64  63  94 SE5       29.96F FOG
STAPLES        MOSUNNY   61  59  94 S6        29.98S
WHEATON        CLOUDY    61  61 100 SE7       29.96F
$$
  *****  WEATHER ELSEWHERE ACROSS MINNESOTA  *****

CITY           SKY/WX    TMP DP  RH WIND       PRES   REMARKS
DULUTH         CLOUDY    61  58  90 SW6       29.97F
INTRNTL FALLS  PTSUNNY   62  61  96 VRB5      29.91S FOG
ELY            CLOUDY    61  59  94 SW5       29.96S FOG
CLOQUET        PTSUNNY   61  57  88 S7        29.98S
BRAINERD       CLOUDY    60  59  96 SW7       29.98S
HIBBING        CLOUDY    59  58  96 SE3       29.96S
ALEXANDRIA     CLOUDY    64  63  96 S10       30.00S
SAINT CLOUD    PTSUNNY   61  60  97 CALM      30.00S
MINNEAPOLIS    CLOUDY    65  61  87 S9        30.02R
$$

  *****  WEATHER ACROSS SOUTH DAKOTA  *****

CITY           SKY/WX    TMP DP  RH WIND       PRES   REMARKS
SIOUX FALLS    LGT RAIN  65  63  93 E12       29.91F FOG
BROOKINGS      CLOUDY    64  61  88 NE7       29.97R
WATERTOWN      CLOUDY    66  63  90 NE5       29.97R
HURON          PTSUNNY   65  63  93 CALM      29.93R
SISSETON         N/A     65  64  97 S5        29.93F
ABERDEEN       MOSUNNY   62  60  93 CALM      29.94R FOG
MITCHELL       CLOUDY    66  65  96 NE8       29.92S
PIERRE         CLOUDY    68  66  93 NE3       29.93S
MOBRIDGE       FOG       67  67 100 S6        29.93R VSB 1/2
RAPID CITY     PTCLDY    58  53  84 NW8       30.02R
$$

  *****  SOME WEATHER IN NEARBY STATES *****

CITY           SKY/WX    TMP DP  RH WIND       PRES   REMARKS
GLASGOW MT     MOCLDY    56  51  84 NW5       29.92R
GREAT FALLS MT CLOUDY    63  39  41 S10       30.04R HAZE
CHEYENNE WY    CLOUDY    59  48  67 NW10      30.24R
SCOTTSBLUFF NE CLEAR     58  52  80 NW8       30.09R
OMAHA NE       CLOUDY    70  67  90 S14       29.84R
DES MOINES IA  LGT RAIN  65  61  87 SE15      29.96F
DAVENPORT IA   CLOUDY    62  59  90 SE5       30.11F
CHICAGO IL     CLOUDY    64  58  80 S5        30.14R
EAU CLAIRE WI  CLOUDY    63  58  83 S5        30.04R
LA CROSSE WI   CLOUDY    66  60  81 S7        30.06R
$$

  *****  SOME NATIONAL WEATHER *****

CITY           SKY/WX    TMP DP  RH WIND       PRES   REMARKS
LA GUARDIA NY  MOSUNNY   70  55  59 N5        30.17S
RALEIGH NC     MOSUNNY   70  62  76 NE3       30.19R
ATLANTA GA     CLOUDY    72  68  87 E9        30.14R FOG
NEW ORLEANS LA MOSUNNY   78  66  66 N9        29.99R
OKLAHOMA CITY  LGT RAIN  70  64  81 SE9       29.99S
ALBUQUERQUE NM PTCLDY    65  54  67 CALM      30.22R
SALT LAKE CITY PTCLDY    66  50  56 SE7       30.18R
LOS ANGELES CA PTCLDY    73  65  75 CALM      29.88S
BOISE ID       MOCLDY    72  36  26 SE10      30.00S
SEATTLE WA     LGT RAIN  61  57  87 S10       30.01F
$$

*** WEATHER ACROSS MANITOBA...SASKATCHEWAN AND ONTARIO ***
                ***ONTARIO***

CITY           SKY/WX    TMP DP  RH WIND       PRES   REMARKS
GERALDTON      CLOUDY    54  50  87 S3        29.96S
THUNDER BAY    CLOUDY    54  50  87 N2        29.96S
SIOUX LOOKOUT  CLOUDY    61  61 100 S6        29.89S
TORONTO        PTSUNNY   61  52  72 NW2       30.22S
BIG TROUT LK   CLOUDY    55  55 100 S6        29.85  FOG
PICKLE LAKE    CLOUDY    57  54  88 VRB2      29.87R
DRYDEN         PTSUNNY   63  61  94 SW8       29.89S
KENORA         LGT RAIN  64  63  94 S10       29.82F FOG
$$
                *** MANITOBA***

CITY           SKY/WX    TMP DP  RH WIND       PRES   REMARKS
BRANDON        PTSUNNY   57  57 100 N5        29.80S
DAUPHIN        SUNNY     61  57  88 SW9       29.80R
ISLAND LAKE    PTSUNNY   57  55  94 SE7       29.81R
PILOT MOUND      N/A    N/A N/A N/A E7          N/A
THE PAS        PTCLDY    57  57 100 SE3       29.75R
THOMPSON       MOSUNNY   52  52 100 VRB2      29.75F
WINNIPEG       CLOUDY    66  61  82 SW2       29.78R
LYNN LAKE      SUNNY     55  52  88 MISG      29.70S
CHURCHILL      MOSUNNY   46  46 100 S5        29.76S FOG
$$
                ***SASKATCHEWAN***

CITY           SKY/WX    TMP DP  RH WIND       PRES   REMARKS
ESTEVAN        CLOUDY    57  55  94 W6        29.87R SMOKE
KINDERSLEY     MOCLDY    57  55  94 SE6       29.85S FOG
LLOYDMINSTER   MOCLDY    55  50  82 SE6       29.82F
PRINCE ALBERT  FOG       52  50  93 VRB2      29.81R VSB 1
REGINA         MOCLDY    54  52  94 W6        29.87R FOG
YORKTON        PTCLDY    55  55 100 NW2       29.83R FOG
N. BATTLEFORD  PTCLDY    57  55  94 N6        29.86R


USA.gov is the U.S. government's official web portal to all federal, state and local government web resources and services.